Retour au catalogue

ONEWEB-0452

ActifCommunicationsPO
NORAD 51644·PAYLOAD·🇬🇧 United Kingdom

Lancé Feb 10, 2022 depuis Guiana Space Centre

Loading…

Prochains Passages (prochaines 24 heures)

TLE

FraisSource: CelesTrak SupGP

Époque: Sep 14, 2026, 16:23 UTC

1 51644C 22012Y   26257.68317546  .00002227  00000+0  57423-2 0  2571
2 51644  87.9194 348.1056 0002252 106.9830   3.1838 13.17644368    12

Suivez ONEWEB-0452 en temps réel avec AllMySat

Download on the App Store